�������l�o���
Date,Time,MP-1(��Sv/h),MP-2(��Sv/h),MP-3(��Sv/h),MP-4(��Sv/h),MP-5(��Sv/h),MP-6(��Sv/h),MP-7(��Sv/h),MP-8(��Sv/h),����,����(m/s),���J
2022/10/17,00:00,0.571,0.823,0.527,1.030,0.720,0.337,0.587,0.553,��,2.3,��
2022/10/17,00:10,0.572,0.823,0.527,1.030,0.722,0.338,0.586,0.555,��쐼,2.5,��
2022/10/17,00:20,0.572,0.824,0.528,1.029,0.721,0.339,0.586,0.555,��,3.2,��
2022/10/17,00:30,0.572,0.824,0.528,1.031,0.721,0.338,0.587,0.553,��,2.6,��
2022/10/17,00:40,0.573,0.825,0.527,1.028,0.722,0.337,0.587,0.553,��,2.6,��
2022/10/17,00:50,0.572,0.823,0.526,1.030,0.724,0.338,0.587,0.553,��,2.3,��
2022/10/17,01:00,0.571,0.823,0.528,1.030,0.723,0.338,0.587,0.554,��쓌,2.0,��
2022/10/17,01:10,0.571,0.825,0.528,1.029,0.722,0.337,0.588,0.555,��쓌,1.7,��
2022/10/17,01:20,0.572,0.824,0.526,1.028,0.722,0.339,0.586,0.554,��쓌,1.7,��
2022/10/17,01:30,0.572,0.825,0.528,1.029,0.722,0.337,0.586,0.554,��쓌,3.1,��
2022/10/17,01:40,0.571,0.823,0.528,1.032,0.722,0.337,0.586,0.554,��,3.9,��
2022/10/17,01:50,0.572,0.825,0.528,1.031,0.723,0.338,0.588,0.553,��쓌,4.4,��
2022/10/17,02:00,0.572,0.825,0.528,1.032,0.723,0.337,0.587,0.554,��쓌,5.2,��
2022/10/17,02:10,0.572,0.825,0.528,1.030,0.723,0.337,0.587,0.554,��쓌,5.3,��
2022/10/17,02:20,0.572,0.824,0.527,1.030,0.722,0.338,0.586,0.552,��,6.9,��
2022/10/17,02:30,0.572,0.824,0.529,1.031,0.724,0.338,0.588,0.555,��,7.0,��
2022/10/17,02:40,0.572,0.824,0.528,1.030,0.723,0.338,0.588,0.554,��,5.2,��
2022/10/17,02:50,0.571,0.823,0.527,1.029,0.722,0.338,0.588,0.554,��쓌,3.5,��
2022/10/17,03:00,0.573,0.825,0.529,1.030,0.722,0.339,0.587,0.554,��쓌,5.0,��
2022/10/17,03:10,0.572,0.821,0.528,1.029,0.724,0.338,0.587,0.554,��,5.9,��
2022/10/17,03:20,0.571,0.822,0.529,1.029,0.722,0.338,0.588,0.554,��,7.1,��
2022/10/17,03:30,0.573,0.823,0.527,1.029,0.722,0.340,0.587,0.553,��쐼,6.0,��
2022/10/17,03:40,0.573,0.824,0.528,1.029,0.724,0.338,0.587,0.556,��,5.1,��
2022/10/17,03:50,0.573,0.823,0.529,1.028,0.723,0.338,0.587,0.553,��쐼,3.7,��
2022/10/17,04:00,0.574,0.824,0.529,1.028,0.722,0.337,0.587,0.554,��,3.2,��
2022/10/17,04:10,0.571,0.824,0.528,1.028,0.722,0.336,0.589,0.554,��,5.1,��
2022/10/17,04:20,0.573,0.820,0.530,1.028,0.724,0.338,0.588,0.553,��쓌,5.6,��
2022/10/17,04:30,0.572,0.823,0.527,1.029,0.722,0.338,0.587,0.552,��,5.3,��
2022/10/17,04:40,0.574,0.824,0.528,1.029,0.723,0.338,0.587,0.555,��,5.4,��
2022/10/17,04:50,0.573,0.825,0.527,1.028,0.724,0.338,0.587,0.554,��,7.1,��
2022/10/17,05:00,0.572,0.824,0.529,1.030,0.724,0.338,0.587,0.554,��,6.4,��
2022/10/17,05:10,0.573,0.824,0.528,1.029,0.723,0.338,0.587,0.554,��,7.7,��
2022/10/17,05:20,0.573,0.823,0.529,1.029,0.723,0.339,0.587,0.555,��,7.0,��
2022/10/17,05:30,0.572,0.824,0.528,1.028,0.722,0.338,0.588,0.555,��,6.1,��
2022/10/17,05:40,0.573,0.825,0.529,1.027,0.721,0.338,0.587,0.553,��,6.9,��
2022/10/17,05:50,0.572,0.824,0.528,1.029,0.723,0.338,0.589,0.555,��,7.5,��
2022/10/17,06:00,0.575,0.823,0.529,1.027,0.721,0.338,0.588,0.555,��,8.0,��
2022/10/17,06:10,0.572,0.824,0.531,1.032,0.723,0.339,0.588,0.554,��,7.3,��
2022/10/17,06:20,0.574,0.824,0.528,1.031,0.721,0.338,0.588,0.555,��,7.5,��
2022/10/17,06:30,0.573,0.825,0.528,1.030,0.723,0.338,0.587,0.554,��,6.2,��
2022/10/17,06:40,0.574,0.824,0.528,1.030,0.720,0.338,0.587,0.554,��쓌,4.9,��
2022/10/17,06:50,0.574,0.824,0.529,1.031,0.722,0.339,0.588,0.555,��쓌,5.1,��
2022/10/17,07:00,0.574,0.821,0.529,1.029,0.721,0.338,0.587,0.555,��쓌,5.6,��
2022/10/17,07:10,0.573,0.825,0.529,1.028,0.723,0.338,0.587,0.555,��,5.5,��
2022/10/17,07:20,0.575,0.823,0.529,1.028,0.723,0.338,0.589,0.555,��,4.6,��
2022/10/17,07:30,0.574,0.821,0.527,1.028,0.721,0.339,0.588,0.555,��,5.8,��
2022/10/17,07:40,0.576,0.822,0.526,1.032,0.720,0.336,0.588,0.555,��,5.8,��
2022/10/17,07:50,0.573,0.821,0.528,1.031,0.720,0.336,0.588,0.554,��,5.0,��
2022/10/17,08:00,0.571,0.822,0.528,1.031,0.721,0.334,0.587,0.555,��,5.9,��
2022/10/17,08:10,0.573,0.819,0.528,1.031,0.721,0.335,0.587,0.555,��,6.1,��
2022/10/17,08:20,0.572,0.821,0.528,1.028,0.720,0.337,0.586,0.556,��,4.3,��
2022/10/17,08:30,0.572,0.821,0.528,1.029,0.720,0.337,0.586,0.556,��,3.8,��
2022/10/17,08:40,0.574,0.821,0.529,1.031,0.720,0.335,0.588,0.555,��,5.2,��
2022/10/17,08:50,0.573,0.822,0.528,1.032,0.719,0.335,0.586,0.555,��쓌,6.0,��
2022/10/17,09:00,0.575,0.820,0.528,1.032,0.724,0.336,0.586,0.554,��,6.4,��
2022/10/17,09:10,0.574,0.824,0.529,1.029,0.722,0.336,0.587,0.554,��쐼,4.4,��
2022/10/17,09:20,0.575,0.820,0.528,1.031,0.722,0.337,0.587,0.553,��,4.3,��
2022/10/17,09:30,0.574,0.822,0.527,1.030,0.722,0.336,0.586,0.555,��,3.7,��
2022/10/17,09:40,0.574,0.821,0.529,1.031,0.722,0.337,0.587,0.553,��쐼,3.2,��
2022/10/17,09:50,0.574,0.821,0.529,1.031,0.722,0.337,0.588,0.552,��,4.1,��
2022/10/17,10:00,0.572,0.823,0.526,1.030,0.722,0.336,0.586,0.551,��,5.2,��
2022/10/17,10:10,0.574,0.822,0.529,1.031,0.721,0.338,0.587,0.553,��쓌,4.6,��
2022/10/17,10:20,0.572,0.822,0.528,1.031,0.721,0.337,0.586,0.552,��쓌,3.5,��
2022/10/17,10:30,0.574,0.821,0.530,1.032,0.723,0.338,0.586,0.552,��쓌,2.3,��
2022/10/17,10:40,0.574,0.823,0.528,1.031,0.725,0.337,0.587,0.553,��쓌,2.6,��
2022/10/17,10:50,0.574,0.822,0.529,1.031,0.723,0.337,0.588,0.553,��쓌,4.0,��
2022/10/17,11:00,0.575,0.821,0.531,1.032,0.723,0.337,0.586,0.554,��,3.2,��
2022/10/17,11:10,0.572,0.822,0.529,1.032,0.722,0.338,0.586,0.553,��쓌,2.6,��
2022/10/17,11:20,0.573,0.820,0.530,1.032,0.720,0.337,0.587,0.553,��쓌,2.8,��
2022/10/17,11:30,0.575,0.822,0.529,1.031,0.723,0.338,0.586,0.553,��쓌,2.8,��
2022/10/17,11:40,0.575,0.823,0.529,1.033,0.722,0.338,0.586,0.554,��쓌,2.2,��
2022/10/17,11:50,0.574,0.825,0.527,1.032,0.722,0.338,0.584,0.555,��쓌,2.8,��
2022/10/17,12:00,0.573,0.823,0.528,1.032,0.724,0.337,0.585,0.553,��쓌,3.3,��
2022/10/17,12:10,0.575,0.824,0.526,1.030,0.722,0.338,0.586,0.553,�쓌,4.8,��
2022/10/17,12:20,0.573,0.825,0.529,1.032,0.722,0.337,0.586,0.553,��쓌,4.5,��
2022/10/17,12:30,0.575,0.824,0.527,1.030,0.722,0.338,0.586,0.554,��쓌,5.1,��
2022/10/17,12:40,0.573,0.826,0.527,1.031,0.723,0.337,0.587,0.554,��,4.8,��
2022/10/17,12:50,0.576,0.824,0.530,1.031,0.724,0.337,0.586,0.554,��,3.1,�L
2022/10/17,13:00,0.574,0.823,0.528,1.031,0.723,0.338,0.588,0.554,��,4.6,��
2022/10/17,13:10,0.576,0.823,0.530,1.033,0.724,0.337,0.587,0.554,��,2.5,�L
2022/10/17,13:20,0.575,0.823,0.530,1.030,0.723,0.338,0.586,0.554,��,2.0,��
2022/10/17,13:30,0.575,0.826,0.530,1.032,0.725,0.337,0.587,0.554,��,4.0,��
2022/10/17,13:40,0.575,0.820,0.532,1.032,0.724,0.336,0.589,0.553,��,6.1,��
2022/10/17,13:50,0.574,0.819,0.532,1.032,0.725,0.337,0.587,0.553,��쐼,5.6,��
2022/10/17,14:00,0.573,0.824,0.530,1.032,0.724,0.337,0.588,0.554,�쐼,3.2,��
2022/10/17,14:10,0.575,0.824,0.530,1.032,0.724,0.337,0.587,0.555,��쐼,1.2,��
2022/10/17,14:20,0.575,0.823,0.529,1.032,0.724,0.338,0.589,0.554,�쐼,1.2,��
2022/10/17,14:30,0.573,0.824,0.531,1.033,0.723,0.338,0.587,0.553,��쐼,0.6,��
2022/10/17,14:40,0.575,0.822,0.530,1.032,0.724,0.337,0.589,0.554,���쐼,0.6,��
2022/10/17,14:50,0.575,0.825,0.530,1.031,0.725,0.337,0.588,0.554,-,CALM,��
2022/10/17,15:00,0.574,0.827,0.532,1.032,0.727,0.339,0.588,0.555,�쓌,1.1,��
2022/10/17,15:10,0.575,0.826,0.532,1.033,0.724,0.338,0.587,0.554,-,CALM,�L
2022/10/17,15:20,0.576,0.826,0.530,1.032,0.725,0.337,0.589,0.554,�k�k��,1.5,�L
2022/10/17,15:30,0.576,0.827,0.529,1.034,0.724,0.337,0.587,0.553,�k�k��,2.3,��
2022/10/17,15:40,0.575,0.828,0.531,1.033,0.725,0.338,0.588,0.554,�k�k��,2.5,��
2022/10/17,15:50,0.574,0.827,0.531,1.034,0.725,0.339,0.588,0.554,�k,2.2,��
2022/10/17,16:00,0.576,0.828,0.531,1.034,0.724,0.337,0.587,0.555,�k,2.0,��
2022/10/17,16:10,0.574,0.828,0.530,1.032,0.725,0.339,0.588,0.554,�k,3.6,��
2022/10/17,16:20,0.576,0.827,0.530,1.033,0.724,0.338,0.588,0.555,�k�k��,3.8,�L
2022/10/17,16:30,0.576,0.827,0.530,1.034,0.725,0.340,0.589,0.552,�k�k��,3.3,�L
2022/10/17,16:40,0.577,0.827,0.532,1.036,0.726,0.338,0.590,0.554,�k��,2.6,�L
2022/10/17,16:50,0.576,0.829,0.532,1.034,0.728,0.339,0.589,0.556,�k��,2.6,�L
2022/10/17,17:00,0.578,0.827,0.532,1.033,0.726,0.339,0.587,0.557,�k��,1.9,�L
2022/10/17,17:10,0.577,0.829,0.533,1.036,0.727,0.340,0.588,0.556,�k�k��,2.6,�L
2022/10/17,17:20,0.577,0.827,0.532,1.033,0.725,0.340,0.588,0.556,�k�k��,2.9,�L
2022/10/17,17:30,0.577,0.826,0.530,1.033,0.723,0.340,0.588,0.556,�k�k��,3.7,�L
2022/10/17,17:40,0.574,0.822,0.530,1.030,0.721,0.340,0.585,0.555,�k�k��,1.7,�L
2022/10/17,17:50,0.572,0.818,0.527,1.029,0.719,0.341,0.584,0.555,�k,1.9,�L
2022/10/17,18:00,0.569,0.814,0.526,1.027,0.717,0.339,0.583,0.552,�k,1.7,�L
2022/10/17,18:10,0.569,0.813,0.527,1.025,0.716,0.340,0.583,0.550,�k�k��,1.7,�L
2022/10/17,18:20,0.568,0.809,0.527,1.025,0.712,0.339,0.582,0.549,�k��,1.2,�L
2022/10/17,18:30,0.569,0.809,0.525,1.025,0.712,0.340,0.583,0.550,�k,1.7,�L
2022/10/17,18:40,0.567,0.809,0.525,1.021,0.712,0.338,0.583,0.552,�k,0.9,�L
2022/10/17,18:50,0.566,0.807,0.522,1.021,0.710,0.338,0.583,0.550,��,1.2,�L
2022/10/17,19:00,0.564,0.804,0.523,1.020,0.708,0.336,0.582,0.549,��,0.6,�L
2022/10/17,19:10,0.563,0.801,0.521,1.014,0.703,0.337,0.578,0.547,�쐼,2.5,�L
2022/10/17,19:20,0.561,0.797,0.520,1.009,0.702,0.335,0.576,0.546,���쐼,2.8,�L
2022/10/17,19:30,0.558,0.795,0.519,1.005,0.699,0.334,0.577,0.546,�쐼,2.8,�L
2022/10/17,19:40,0.559,0.794,0.518,1.002,0.698,0.334,0.575,0.544,���쐼,3.1,�L
2022/10/17,19:50,0.559,0.795,0.519,1.002,0.697,0.336,0.575,0.544,�쐼,3.8,�L
2022/10/17,20:00,0.558,0.793,0.516,1.000,0.698,0.335,0.574,0.545,���쐼,4.9,�L
2022/10/17,20:10,0.558,0.792,0.518,0.999,0.696,0.336,0.574,0.544,���쐼,6.2,�L
2022/10/17,20:20,0.557,0.791,0.518,0.998,0.697,0.335,0.574,0.543,��,6.5,�L
2022/10/17,20:30,0.556,0.790,0.516,0.997,0.696,0.335,0.575,0.543,��,6.0,�L
2022/10/17,20:40,0.557,0.789,0.516,0.995,0.693,0.334,0.573,0.542,���k��,5.6,�L
2022/10/17,20:50,0.554,0.787,0.515,0.993,0.691,0.334,0.574,0.543,���k��,6.8,�L
2022/10/17,21:00,0.553,0.787,0.515,0.991,0.692,0.334,0.574,0.545,���k��,6.3,�L
2022/10/17,21:10,0.555,0.786,0.516,0.991,0.690,0.334,0.573,0.542,�k��,5.6,�L
2022/10/17,21:20,0.555,0.789,0.516,0.991,0.693,0.334,0.572,0.541,�k��,4.6,�L
2022/10/17,21:30,0.555,0.787,0.518,0.988,0.692,0.335,0.573,0.544,���k��,5.4,�L
2022/10/17,21:40,0.554,0.786,0.516,0.990,0.691,0.334,0.573,0.543,�k��,5.4,�L
2022/10/17,21:50,0.553,0.787,0.517,0.991,0.691,0.336,0.573,0.543,���k��,4.8,�L
2022/10/17,22:00,0.555,0.787,0.516,0.991,0.691,0.334,0.573,0.542,��,4.2,�L
2022/10/17,22:10,0.556,0.789,0.517,0.992,0.692,0.335,0.573,0.542,��,4.3,�L
2022/10/17,22:20,0.556,0.789,0.517,0.988,0.692,0.334,0.574,0.542,��,4.1,�L
2022/10/17,22:30,0.554,0.788,0.516,0.988,0.693,0.335,0.574,0.542,��,5.1,�L
2022/10/17,22:40,0.555,0.788,0.514,0.988,0.693,0.333,0.574,0.545,��,4.3,�L
2022/10/17,22:50,0.554,0.789,0.514,0.990,0.694,0.333,0.573,0.544,���쐼,3.2,�L
2022/10/17,23:00,0.554,0.789,0.514,0.991,0.692,0.332,0.573,0.544,��,1.7,��
2022/10/17,23:10,0.553,0.790,0.513,0.989,0.692,0.332,0.576,0.545,�k�k��,2.3,��
2022/10/17,23:20,0.553,0.790,0.514,0.990,0.693,0.332,0.575,0.545,�k��,4.7,��
2022/10/17,23:30,0.552,0.790,0.512,0.988,0.695,0.331,0.575,0.548,���k��,5.2,��
2022/10/17,23:40,0.552,0.791,0.514,0.990,0.695,0.332,0.575,0.546,�k��,5.1,�L
2022/10/17,23:50,0.553,0.790,0.512,0.989,0.695,0.333,0.575,0.544,���k��,4.3,�L
